Date,TemperatureHighF,TemperatureAvgF,TemperatureLowF,DewpointHighF,DewpointAvgF,DewpointLowF,HumidityHigh,HumidityAvg,HumidityLow,PressureMaxIn,PressureMinIn,WindSpeedMaxMPH,WindSpeedAvgMPH,GustSpeedMaxMPH,PrecipitationSumIn
2013-1-1,37.8,35.1,28.4,37.0,33.5,24.0,97,93,84,30.29,30.07,7,1,8,0.00
2013-1-2,37.9,27.4,20.0,30.0,24.3,19.0,95,88,72,30.34,30.24,3,0,4,0.01
2013-1-3,44.8,29.9,20.1,32.0,24.9,18.0,96,83,53,30.47,30.30,3,0,8,0.00
2013-1-4,49.2,31.6,21.4,31.0,24.4,20.0,96,78,38,30.52,30.37,3,0,6,0.01
2013-1-5,51.9,37.1,26.3,34.0,30.1,25.0,95,78,49,30.38,30.21,5,1,12,0.00
2013-1-6,47.9,35.0,24.6,31.0,27.2,23.0,95,76,47,30.42,30.24,10,2,17,0.00
2013-1-7,54.4,33.2,18.6,32.0,24.7,17.0,95,75,34,30.45,30.20,2,0,5,0.00
2013-1-8,59.4,42.1,25.8,44.0,33.7,25.0,96,75,48,30.25,30.10,6,0,7,0.02
2013-1-9,58.2,50.5,45.4,50.0,45.4,44.0,97,84,63,30.39,30.24,4,0,6,0.06
2013-1-10,52.3,48.5,44.8,52.0,47.4,43.0,98,96,86,30.30,29.83,5,0,6,0.42
2013-1-11,67.9,51.3,36.3,53.0,45.3,36.0,99,82,53,29.94,29.81,4,1,14,0.01
2013-1-12,59.4,49.4,35.2,54.0,46.7,33.0,97,90,75,29.92,29.75,10,2,20,1.43
2013-1-13,36.1,30.9,22.4,34.0,26.1,19.0,93,83,66,30.41,29.92,14,5,22,0.00
2013-1-14,35.2,24.6,17.0,20.0,17.6,15.0,94,76,47,30.55,30.40,3,0,8,0.00
2013-1-15,29.3,24.8,18.8,25.0,20.5,15.0,88,83,75,30.41,30.20,3,0,8,0.01
2013-1-16,46.5,30.0,17.8,26.0,22.1,16.0,94,76,41,30.27,30.13,3,0,5,0.02
2013-1-17,46.3,35.0,27.0,36.0,29.0,24.0,94,80,55,30.53,30.21,11,2,16,0.00
2013-1-18,61.3,39.6,23.0,35.0,26.8,22.0,97,67,24,30.57,30.25,8,1,11,0.00
2013-1-19,68.3,48.0,28.8,38.0,32.7,26.0,92,59,30,30.25,30.07,5,1,14,0.00
2013-1-20,60.7,40.9,28.7,39.0,30.8,27.0,97,72,32,30.32,30.15,2,0,4,0.03
2013-1-21,41.4,32.3,25.9,30.0,17.9,14.0,88,56,37,30.43,30.27,9,2,12,0.00
2013-1-22,42.3,28.9,19.7,21.0,18.7,17.0,92,68,40,30.45,30.31,3,0,5,0.00
2013-1-23,62.3,37.7,21.4,43.0,29.8,19.0,93,75,47,30.36,30.15,2,0,3,0.00
2013-1-24,40.4,34.8,29.9,34.0,19.8,14.0,94,55,43,30.46,30.23,10,1,10,0.00
2013-1-25,48.1,37.0,29.5,35.0,29.1,21.0,88,73,60,30.24,30.17,5,1,10,0.00
2013-1-26,59.6,45.1,29.1,36.0,30.0,27.0,97,61,31,30.36,30.23,4,0,6,0.00
2013-1-27,60.2,50.1,44.1,57.0,44.6,33.0,95,82,59,30.25,29.99,4,1,8,0.06
2013-1-28,76.0,68.0,60.9,63.0,60.9,57.0,89,79,61,30.00,29.87,12,4,15,0.00
2013-1-29,68.7,63.5,53.3,64.0,59.9,53.0,97,88,80,29.87,29.42,8,3,29,1.25
2013-1-30,53.3,40.4,30.2,53.0,33.9,22.0,97,78,65,30.07,29.45,20,8,32,0.08
2013-1-31,52.4,33.6,23.6,32.0,22.8,8.0,93,67,39,30.45,30.05,17,4,24,0.00